SCP
-0 -0 -0 -0 0 0 0 0 0 0 0 0 0 0 0 0 0 0 0 0 0 0 0 0 0 0 0 0 0 0 0 0 0 0 0 0 0 0
-0 0 -0 0 0 0 0 0 0 0 0 0 0 0 0 0 0 0 0 0 0 0 0 0 0 0 0 0 0 0 0 0 0 0 0 0 0 0
-0 0 -0 0 0 0 0 0 0 0 0 0 0 0 0 0 0 0 0 0 0 0 0 0 0 0 0 0 0 0 0 0 0 0 0 0 0 0
-0 0 -0 0 0 0 0 0 0 0 0 0 0 0 0 0 0 0 0 0 0 0 0 0 0 0 0 0 0 0 0 0 0 0 0 0 0 0
-0 0 -0 0 0 0 0 0 0 0 0 0 0 0 0 0 0 0 0 0 0 0 0 0 0 0 0 0 0 0 0 0 0 0 0 0 0 0
0 0 -0 0 0 0 0 0 0 0 0 0 0 0 0 0 0 0 0 0 0 0 0 0 0 0 0 0 0 0 0 0 0 0 0 0 0 0
0 0 -0 0 0 0 0 0 0 0 0 0 0 0 0 0 0 0 0 0 0 0 0 0 0 0 0 0 0 0 0 0 0 0 0 0 0 0
0 0 -0 0 0 0 0 0 0 0 0 0 0 0 0 0 0 0 0 0 0 0 0 0 0 0 0 0 0 0 0 0 0 0 0 0 0 0
0 0 0 -0 0 0 0 0 0 0 0 0 0 0 0 0 0 0 0 0 0 0 0 0 0 0 0 0 0 0 0 0 0 0 0 0 0 0
0 0 0 -0 0 0 0 0 0 0 0 0 0 0 0 0 0 0 0 0 0 0 0 0 0 0 0 0 0 0 0 0 0 0 0 0 0 0
-0 0 0 0 0 0 0 0 0 0 0 0 0 0 0 0 0 0 0 0 0 0 0 0 0 0 0 0 0 0 0 0 0 0 0 0 0 0
-0 0 0 0 0 0 0 0 0 0 0 0 0 0 0 0 0 0 0 0 0 0 0 0 0 0 0 0 0 0 0 0 0 0 0 0 0 0
-0 0 0 0 0 0 0 0 0 0 0 0 0 0 0 0 0 0 0 0 0 0 0 0 0 0 0 0 0 0 0 0 0 0 0 0 0 0
0 0 0 0 0 0 0 0 0 0 0 0 0 0 0 0 0 0 0 0 0 0 0 0 0 0 0 0 0 0 0 0 0 0 0 0 0 0
0 0 0 0 0 0 0 0 0 0 0 0 0 0 0 0 0 0 0 0 0 0 0 0 0 0 0 0 0 0 0 0 0 0 0 0 0 0
0 0 0 0 0 0 0 0 0 0 0 0 0 0 0 0 0 0 0 0 0 0 0 0 0 0 0 0 0 0 0 0 0 0 0 0 0 0
0 0 0 0 0 0 0 0 0 0 0 0 0 0 0 0 0 0 0 0 0 0 0 0 0 0 0 0 0 0 0 0 0 0 0 0 0 0
0 0 0 0 0 0 0 0 0 0 0 0 0 0 0 0 0 0 0 0 0 0 0 0 0 0 0 0 0 0 0 0 0 0 0 0 0 0
0 0 0 0 0 0 0 0 0 0 0 0 0 0 0 0 0 0 0 0 0 0 0 0 0 0 0 0 0 0 0 0 0 0 0 0 0 0
0 0 0 0 0 0 0 0 0 0 0 0 0 0 0 0 0 0 0 0 0 0 0 0 0 0 0 0 0 0 0 0 0 0 0 0 0 0
0 0 0 0 0 0 0 0 0 0 0 0 0 0 0 0 0 0 0 0 0 0 0 0 0 0 0 0 0 0 0 0 0 0 0 0 0 0
0 0 0 0 0 0 0 0 0 0 0 0 0 0 0 0 0 0 0 0 0 0 0 0 0 0 0 0 0 0 0 0 0 0 0 0 0 0
0 0 0 0 0 0 0 0 0 0 0 0 0 0 0 0 0 0 0 0 0 0 0 0 0 0 0 0 0 0 0 0 0 0 0 0 0 0
Wind_Speed_500mb
73 64 81 108 62 107 110 119 117 63 88 90 85 120 117 110 104 97 92 88 88 90 91 87 81 77 69 69 74 68 67 65 58 56 56 58 58 56
62 62 79 101 106 70 113 127 129 114 84 93 102 115 123 110 107 105 97 85 85 91 91 87 85 78 72 76 68 64 63 58 56 57 60 61 60 56
64 57 70 107 106 67 114 122 121 106 105 100 122 117 110 112 109 104 99 96 93 97 96 91 85 78 76 75 64 62 61 58 60 60 62 62 60 57
55 69 59 91 63 83 116 124 124 112 109 118 118 124 123 116 119 113 100 98 97 100 98 91 84 77 74 71 65 63 59 61 60 61 65 64 62 59
55 62 59 84 70 68 98 117 111 107 116 119 124 128 132 129 127 113 109 106 108 104 102 94 85 76 71 67 62 61 60 61 63 63 68 68 67 61
54 64 52 65 69 60 117 113 112 111 116 120 117 128 130 138 130 122 120 117 114 109 107 99 90 80 70 68 63 62 64 63 64 64 70 70 67 61
53 68 55 55 59 66 114 116 114 124 128 117 106 116 117 131 131 135 131 126 123 113 112 107 95 82 76 71 69 64 68 66 67 69 74 72 69 60
60 62 67 59 63 38 124 115 125 134 133 125 120 130 131 142 133 137 134 133 109 104 104 100 93 88 83 81 78 72 75 72 71 74 77 74 71 62
78 63 74 54 78 32 117 112 112 131 133 127 126 136 143 157 153 148 146 140 117 127 111 101 94 89 88 85 84 82 82 78 73 78 78 75 72 65
91 84 80 63 64 53 91 124 126 130 128 125 125 133 125 151 162 152 150 137 106 104 114 104 97 95 91 89 90 90 88 82 77 82 82 77 74 69
87 97 87 80 65 54 55 127 136 136 128 128 116 122 118 140 150 142 136 139 112 112 114 104 111 108 104 99 98 94 91 86 84 86 83 79 74 72
87 81 81 81 61 52 56 131 140 138 136 122 124 123 126 130 139 148 150 135 112 90 113 115 105 112 91 104 98 100 97 91 89 89 86 83 78 81
69 63 79 77 70 64 70 129 129 135 134 130 121 121 123 129 129 148 145 149 150 118 116 116 106 108 88 80 110 111 110 106 104 98 93 89 88 93
61 67 78 74 65 71 79 114 139 137 134 131 121 116 119 116 116 125 134 132 130 132 113 110 120 115 115 92 90 122 119 116 116 112 108 103 101 100
60 69 75 67 56 73 75 116 140 136 132 134 134 129 126 118 113 106 113 127 113 108 112 115 102 114 124 124 119 113 131 132 127 121 119 120 117 118
64 73 70 58 56 66 83 120 132 134 141 134 131 129 126 123 119 110 119 118 122 115 119 102 101 116 119 128 124 120 119 140 134 131 128 126 127 130
44 50 62 64 65 70 96 119 126 124 126 125 129 131 132 132 132 128 123 124 123 126 119 108 93 108 115 111 122 122 121 118 120 131 140 145 141 137
51 56 64 74 68 78 96 104 115 125 129 129 129 133 137 137 134 128 121 125 131 128 126 116 109 105 110 109 115 120 126 121 120 116 127 144 145 145
54 56 64 68 74 85 102 108 117 123 124 119 121 131 132 134 129 124 131 130 126 122 122 123 120 119 116 121 115 118 113 118 114 117 121 126 139 145
46 47 55 69 77 88 96 103 108 112 117 116 117 123 127 136 135 130 132 133 129 121 119 119 126 134 139 133 108 109 123 118 115 114 124 128 124 117
29 17 30 58 66 76 95 100 104 109 115 113 116 118 124 134 141 140 133 131 129 126 127 140 141 123 123 96 92 99 109 112 122 123 120 115 116 118
52 41 26 25 49 65 74 92 100 102 104 112 116 122 123 131 140 141 131 127 128 134 137 130 123 120 114 124 127 103 112 107 106 111 113 116 115 118
76 63 55 36 21 41 67 74 79 93 99 107 114 123 127 129 130 132 125 121 127 126 122 112 106 110 117 127 126 114 110 106 105 107 112 112 111 117
Wind_Direction_500mb
255 273 252 251 313 200 193 187 183 175 188 187 188 179 182 183 181 179 190 190 187 185 182 181 178 176 177 175 177 179 187 194 190 189 188 186 184 184
278 269 252 251 263 239 197 195 192 186 184 193 186 189 185 183 184 183 187 188 194 184 182 182 181 182 182 180 185 192 197 193 192 195 192 190 188 186
279 257 262 260 259 255 185 188 187 183 180 185 196 193 195 186 184 186 185 188 194 188 184 185 186 187 184 188 195 199 199 198 196 198 197 194 193 190
273 255 254 249 298 204 185 186 187 185 180 182 188 197 201 200 189 187 190 195 194 189 187 188 189 186 189 195 200 203 203 205 201 200 201 197 195 195
268 264 261 251 260 209 188 186 187 185 193 197 186 187 190 189 187 189 189 192 191 187 190 191 192 192 196 201 204 207 208 207 206 204 202 198 197 199
268 267 262 253 257 296 196 189 187 182 189 194 186 190 195 192 188 185 189 192 190 193 195 196 196 198 205 210 212 211 215 210 211 208 205 203 203 201
267 270 265 252 254 267 191 189 183 186 187 187 183 183 186 185 182 188 190 194 194 196 200 196 191 198 207 216 218 216 218 217 213 212 206 206 206 206
252 266 260 243 240 264 202 199 200 193 189 189 189 187 189 192 185 188 192 193 188 195 194 194 199 204 209 212 217 217 219 217 216 213 209 208 210 210
250 254 263 251 244 281 204 207 210 212 211 203 195 192 190 190 190 191 194 193 187 197 194 196 201 207 213 215 217 218 220 219 216 214 211 210 215 216
245 249 257 263 243 242 204 205 200 205 209 212 212 201 206 194 191 194 195 194 195 195 197 200 204 209 214 216 216 217 218 218 218 213 211 214 217 222
245 249 251 257 236 234 216 189 199 204 210 212 214 209 204 201 194 194 194 193 189 193 197 203 203 208 210 212 213 213 218 219 218 215 214 216 221 225
243 241 247 249 250 220 213 199 195 196 201 193 205 205 204 201 205 201 200 198 191 192 201 202 206 206 203 211 212 211 214 223 219 218 217 219 222 223
251 238 247 245 251 219 207 201 206 200 200 200 203 200 202 202 204 208 209 209 206 204 209 207 212 207 206 209 209 211 215 218 218 217 219 222 223 223
241 244 245 244 240 218 212 202 201 204 202 198 198 198 199 203 204 211 210 210 209 208 217 218 216 215 213 210 205 211 215 219 220 216 217 220 223 224
245 248 250 246 237 229 219 203 202 206 198 196 200 204 203 201 202 203 204 214 214 217 224 227 232 229 222 218 218 217 212 217 219 220 221 221 222 222
246 251 253 248 229 233 212 199 201 202 204 202 203 203 200 200 197 200 200 207 210 216 218 223 228 225 222 222 227 224 222 220 220 220 223 227 227 228
267 266 251 240 237 230 200 194 202 206 202 207 200 199 200 200 202 202 207 208 212 215 216 218 216 224 225 227 221 226 226 223 229 226 222 226 229 231
249 254 244 238 227 209 194 192 193 198 201 202 201 204 204 204 204 206 207 209 211 213 216 215 212 213 217 222 226 227 226 227 230 232 232 231 234 234
246 244 236 224 210 198 197 193 195 200 204 201 200 205 208 207 206 205 206 210 211 211 216 216 212 212 210 217 221 226 229 227 226 230 234 236 238 240
223 222 219 214 206 200 197 195 196 197 202 200 201 205 207 207 202 207 207 210 212 212 215 218 219 218 217 217 216 222 226 227 230 233 233 234 240 243
81 109 172 185 190 195 206 204 207 206 205 201 203 206 206 206 204 208 214 214 215 213 213 221 225 228 226 222 225 225 227 231 232 235 236 237 241 243
59 59 67 141 178 188 192 203 204 206 210 208 208 211 214 213 208 210 215 214 214 218 224 226 226 225 221 223 226 228 231 232 237 243 243 245 240 237
53 51 58 66 131 176 190 194 204 213 216 217 213 210 213 214 214 218 224 223 223 218 220 218 222 225 229 228 230 230 233 234 234 233 238 241 244 244
Wind_Speed_850mb
73 64 81 108 62 107 110 119 117 63 88 90 85 120 117 110 104 97 92 88 88 90 91 87 81 77 69 69 74 68 67 65 58 56 56 58 58 56
62 62 79 101 106 70 113 127 129 114 84 93 102 115 123 110 107 105 97 85 85 91 91 87 85 78 72 76 68 64 63 58 56 57 60 61 60 56
64 57 70 107 106 67 114 122 121 106 105 100 122 117 110 112 109 104 99 96 93 97 96 91 85 78 76 75 64 62 61 58 60 60 62 62 60 57
55 69 59 91 63 83 116 124 124 112 109 118 118 124 123 116 119 113 100 98 97 100 98 91 84 77 74 71 65 63 59 61 60 61 65 64 62 59
55 62 59 84 70 68 98 117 111 107 116 119 124 128 132 129 127 113 109 106 108 104 102 94 85 76 71 67 62 61 60 61 63 63 68 68 67 61
54 64 52 65 69 60 117 113 112 111 116 120 117 128 130 138 130 122 120 117 114 109 107 99 90 80 70 68 63 62 64 63 64 64 70 70 67 61
53 68 55 55 59 66 114 116 114 124 128 117 106 116 117 131 131 135 131 126 123 113 112 107 95 82 76 71 69 64 68 66 67 69 74 72 69 60
60 62 67 59 63 38 124 115 125 134 133 125 120 130 131 142 133 137 134 133 109 104 104 100 93 88 83 81 78 72 75 72 71 74 77 74 71 62
78 63 74 54 78 32 117 112 112 131 133 127 126 136 143 157 153 148 146 140 117 127 111 101 94 89 88 85 84 82 82 78 73 78 78 75 72 65
91 84 80 63 64 53 91 124 126 130 128 125 125 133 125 151 162 152 150 137 106 104 114 104 97 95 91 89 90 90 88 82 77 82 82 77 74 69
87 97 87 80 65 54 55 127 136 136 128 128 116 122 118 140 150 142 136 139 112 112 114 104 111 108 104 99 98 94 91 86 84 86 83 79 74 72
87 81 81 81 61 52 56 131 140 138 136 122 124 123 126 130 139 148 150 135 112 90 113 115 105 112 91 104 98 100 97 91 89 89 86 83 78 81
69 63 79 77 70 64 70 129 129 135 134 130 121 121 123 129 129 148 145 149 150 118 116 116 106 108 88 80 110 111 110 106 104 98 93 89 88 93
61 67 78 74 65 71 79 114 139 137 134 131 121 116 119 116 116 125 134 132 130 132 113 110 120 115 115 92 90 122 119 116 116 112 108 103 101 100
60 69 75 67 56 73 75 116 140 136 132 134 134 129 126 118 113 106 113 127 113 108 112 115 102 114 124 124 119 113 131 132 127 121 119 120 117 118
64 73 70 58 56 66 83 120 132 134 141 134 131 129 126 123 119 110 119 118 122 115 119 102 101 116 119 128 124 120 119 140 134 131 128 126 127 130
44 50 62 64 65 70 96 119 126 124 126 125 129 131 132 132 132 128 123 124 123 126 119 108 93 108 115 111 122 122 121 118 120 131 140 145 141 137
51 56 64 74 68 78 96 104 115 125 129 129 129 133 137 137 134 128 121 125 131 128 126 116 109 105 110 109 115 120 126 121 120 116 127 144 145 145
54 56 64 68 74 85 102 108 117 123 124 119 121 131 132 134 129 124 131 130 126 122 122 123 120 119 116 121 115 118 113 118 114 117 121 126 139 145
46 47 55 69 77 88 96 103 108 112 117 116 117 123 127 136 135 130 132 133 129 121 119 119 126 134 139 133 108 109 123 118 115 114 124 128 124 117
29 17 30 58 66 76 95 100 104 109 115 113 116 118 124 134 141 140 133 131 129 126 127 140 141 123 123 96 92 99 109 112 122 123 120 115 116 118
52 41 26 25 49 65 74 92 100 102 104 112 116 122 123 131 140 141 131 127 128 134 137 130 123 120 114 124 127 103 112 107 106 111 113 116 115 118
76 63 55 36 21 41 67 74 79 93 99 107 114 123 127 129 130 132 125 121 127 126 122 112 106 110 117 127 126 114 110 106 105 107 112 112 111 117
Wind_Direction_850mb
255 273 252 251 313 200 193 187 183 175 188 187 188 179 182 183 181 179 190 190 187 185 182 181 178 176 177 175 177 179 187 194 190 189 188 186 184 184
278 269 252 251 263 239 197 195 192 186 184 193 186 189 185 183 184 183 187 188 194 184 182 182 181 182 182 180 185 192 197 193 192 195 192 190 188 186
279 257 262 260 259 255 185 188 187 183 180 185 196 193 195 186 184 186 185 188 194 188 184 185 186 187 184 188 195 199 199 198 196 198 197 194 193 190
273 255 254 249 298 204 185 186 187 185 180 182 188 197 201 200 189 187 190 195 194 189 187 188 189 186 189 195 200 203 203 205 201 200 201 197 195 195
268 264 261 251 260 209 188 186 187 185 193 197 186 187 190 189 187 189 189 192 191 187 190 191 192 192 196 201 204 207 208 207 206 204 202 198 197 199
268 267 262 253 257 296 196 189 187 182 189 194 186 190 195 192 188 185 189 192 190 193 195 196 196 198 205 210 212 211 215 210 211 208 205 203 203 201
267 270 265 252 254 267 191 189 183 186 187 187 183 183 186 185 182 188 190 194 194 196 200 196 191 198 207 216 218 216 218 217 213 212 206 206 206 206
252 266 260 243 240 264 202 199 200 193 189 189 189 187 189 192 185 188 192 193 188 195 194 194 199 204 209 212 217 217 219 217 216 213 209 208 210 210
250 254 263 251 244 281 204 207 210 212 211 203 195 192 190 190 190 191 194 193 187 197 194 196 201 207 213 215 217 218 220 219 216 214 211 210 215 216
245 249 257 263 243 242 204 205 200 205 209 212 212 201 206 194 191 194 195 194 195 195 197 200 204 209 214 216 216 217 218 218 218 213 211 214 217 222
245 249 251 257 236 234 216 189 199 204 210 212 214 209 204 201 194 194 194 193 189 193 197 203 203 208 210 212 213 213 218 219 218 215 214 216 221 225
243 241 247 249 250 220 213 199 195 196 201 193 205 205 204 201 205 201 200 198 191 192 201 202 206 206 203 211 212 211 214 223 219 218 217 219 222 223
251 238 247 245 251 219 207 201 206 200 200 200 203 200 202 202 204 208 209 209 206 204 209 207 212 207 206 209 209 211 215 218 218 217 219 222 223 223
241 244 245 244 240 218 212 202 201 204 202 198 198 198 199 203 204 211 210 210 209 208 217 218 216 215 213 210 205 211 215 219 220 216 217 220 223 224
245 248 250 246 237 229 219 203 202 206 198 196 200 204 203 201 202 203 204 214 214 217 224 227 232 229 222 218 218 217 212 217 219 220 221 221 222 222
246 251 253 248 229 233 212 199 201 202 204 202 203 203 200 200 197 200 200 207 210 216 218 223 228 225 222 222 227 224 222 220 220 220 223 227 227 228
267 266 251 240 237 230 200 194 202 206 202 207 200 199 200 200 202 202 207 208 212 215 216 218 216 224 225 227 221 226 226 223 229 226 222 226 229 231
249 254 244 238 227 209 194 192 193 198 201 202 201 204 204 204 204 206 207 209 211 213 216 215 212 213 217 222 226 227 226 227 230 232 232 231 234 234
246 244 236 224 210 198 197 193 195 200 204 201 200 205 208 207 206 205 206 210 211 211 216 216 212 212 210 217 221 226 229 227 226 230 234 236 238 240
223 222 219 214 206 200 197 195 196 197 202 200 201 205 207 207 202 207 207 210 212 212 215 218 219 218 217 217 216 222 226 227 230 233 233 234 240 243
81 109 172 185 190 195 206 204 207 206 205 201 203 206 206 206 204 208 214 214 215 213 213 221 225 228 226 222 225 225 227 231 232 235 236 237 241 243
59 59 67 141 178 188 192 203 204 206 210 208 208 211 214 213 208 210 215 214 214 218 224 226 226 225 221 223 226 228 231 232 237 243 243 245 240 237
53 51 58 66 131 176 190 194 204 213 216 217 213 210 213 214 214 218 224 223 223 218 220 218 222 225 229 228 230 230 233 234 234 233 238 241 244 244